Weather Roundup
Issued by NWS

Home | Current Version | Previous Version | Graphics & Text | Print | Product List | Glossary Off
Versions: 1 2 3 4 5 6 7 8 9 10 11 12 13 14 15 16 17 18 19 20 21 22 23 24 25 26 27 28 29 30 31 32 33 34 35 36 37 38 39 40 41 42 43 44 45 46 47 48 49 50

283
NZUS93 KARX 242210
HRRWXR

CURRENT HOURLY OBSERVATIONS ACROSS
MUCH OF THE UPPER MISSISSIPPI VALLEY
NATIONAL WEATHER SERVICE LA CROSSE WI
500 PM CDT THU MAY 24 2018


...SOUTHEAST MINNESOTA...


CITY           SKY/WX    TMP DP  RH WIND       PRES   REMARKS
ROCHESTER      FAIR      89  57  33 SW26G38   29.95F
ROCHESTER/MAYO FAIR      89  54  30 SW22G33   29.95F
WINONA         FAIR      90  66  45 S6        29.94F HX  92
AUSTIN         FAIR      86  55  35 SW18G28   29.95F
ALBERT LEA     FAIR      86  54  32 S15       29.94F
DODGE CENTER   FAIR      84  54  34 S21       29.95F
PRESTON        FAIR      86  58  37 S18G25    29.97F
OWATONNA       FAIR      90  61  37 S22G30    29.93F
FARIBAULT      FAIR      88  61  40 S13G25    29.92F
$$

...ELSEWHERE IN MINNESOTA...


CITY           SKY/WX    TMP DP  RH WIND       PRES   REMARKS
MINNEAPOLIS    FAIR      91  61  36 S16G26    29.88F HX  91
INTNL FALLS    PTSUNNY   70  66  87 S6        29.84F
DULUTH         PTSUNNY   74  66  76 SE7       29.91F
RED WING       FAIR      91  50  24 S12       29.90F
REDWOOD FALLS  CLOUDY    78  69  73 N9        29.83F THUNDER
MANKATO        PTSUNNY   89  61  38 S14G21    29.89F
WORTHINGTON      N/A     86  58  38 S16       29.92R
FAIRMONT       MOSUNNY   89  61  38 SW21      29.90F
$$

...SOUTHWEST WISCONSIN...


CITY           SKY/WX    TMP DP  RH WIND       PRES   REMARKS
LA CROSSE      FAIR      88  65  46 S20G25    29.95F HX  90
PRAIRIE DU CHI FAIR      87  59  38 S12       29.99F
BOSCOBEL       FAIR      88  65  46 VRB6      30.01F HX  90
LONE ROCK      FAIR      86  65  49 S6        30.01F
PLATTEVILLE    FAIR      85  65  51 SW10G16   30.04F
FORT MC COY    FAIR      84  62  47 S10G18    29.99F
CAMP DOUGLAS   PTSUNNY   86  63  45 SW6G16    30.00F
MAUSTON-NEW LI FAIR      86  63  46 S10       30.00F
VIROQUA        FAIR      85  63  47 S12G17    30.02F
WIS DELLS      FAIR      85  54  33 S9        30.03F
$$

...ELSEWHERE IN WISCONSIN...


CITY           SKY/WX    TMP DP  RH WIND       PRES   REMARKS
MILWAUKEE      PTSUNNY   79  58  48 SE12      30.07F
MADISON        FAIR      85  58  39 S10       30.03F
GREEN BAY      FAIR      83  61  47 S9        30.02F
EAU CLAIRE     PTSUNNY   87  64  46 S16G24    29.93F
BLACK RVR FLS  FAIR      88  57  35 S9G17     29.97F
MEDFORD        FAIR      85  61  44 S16G25    29.98F
WAUSAU         FAIR      85  60  42 S16       29.98F
WIS RAPIDS     FAIR      87  60  40 S16       30.01F
MARSHFIELD     FAIR      86  62  44 S14G24    29.98F
RICE LAKE      FAIR      88  58  35 S17       29.94S
$$

...NORTHEAST IOWA...


CITY           SKY/WX    TMP DP  RH WIND       PRES   REMARKS
WATERLOO       FAIR      87  63  44 S18       29.96F
DUBUQUE        FAIR      84  64  50 SW12      30.04F
DECORAH        FAIR      86  63  45 S9G20     29.98F
MASON CITY     MOSUNNY   88  61  40 S20G29    29.95F
CHARLES CITY   FAIR      90  59  35 S20G28    29.96F
OELWEIN        FAIR      88  61  40 S18G28    30.00F
$$

...ELSEWHERE IN IOWA...


CITY           SKY/WX    TMP DP  RH WIND       PRES   REMARKS
DES MOINES     MOSUNNY   88  63  43 S17G26    29.97F
IOWA CITY      FAIR      89  64  43 S9        30.02F HX  90
FORT DODGE     PTSUNNY   87  66  49 S17G25    29.94F
MARSHALLTOWN   SUNNY     87  61  41 S21G30    29.97F
CEDAR RAPIDS   FAIR      88  66  48 S16G24    30.00F HX  90
$$

...NORTHERN ILLINOIS...


CITY           SKY/WX    TMP DP  RH WIND       PRES   REMARKS
CHICAGO-OHARE  PTSUNNY   85  55  35 S9        30.06F
CHICAGO-MIDWAY PTSUNNY   86  56  35 E10       30.06F
MOLINE         FAIR      89  60  37 S9        30.02F
ROCKFORD       PTSUNNY   85  59  41 S12       30.06F
PEORIA         FAIR      88  60  38 E3        30.05F
$$

NOTE: "FAIR" INDICATES FEW OR NO CLOUDS BELOW 12,000 FEET WITH NO
SIGNIFICANT WEATHER AND/OR OBSTRUCTIONS TO VISIBILITY. WIND
SPEEDS ARE IN MILES-PER-HOUR.




USA.gov is the U.S. government's official web portal to all federal, state and local government web resources and services.